Weather in Mezen

Russia / Arkhangel'skaya Oblast'     65°50′38″N   44°14′36″E
temp.,
°C
wind,
m/s
gust,
m/s
humid.,
%
clouds,
%
prec.,
mm/h
press.,
hPa
HPBL,
m
27 january, wed
wed2700:00−8e4795100 1.5 1011201
03:00−8e3696100 2.4 1010143
06:00−7ese3596100 0.7 1009163
09:00−7e3597100 1.0 1008134
12:00−4ese2697100 0.6 1006258
15:00−4ese2497100 1.4 1005189
18:00−4e2497100 1.0 1003188
21:00−6ene2497100 1.8 1002120
28 january, thu
thu2800:00−9ne3596100 0.6 1002179
03:00−12nne369599 1.1 1002227
06:00−15nne3596100 0.4 1004248
09:00−17n369698 0.6 1006251
12:00−19nne369584 0.1 1010302
15:00−20nne369688 0.1 1013244
18:00−23ne379682 0.0 1015227
21:00−25ene389571 0.0 1017205
29 january, fri
fri2900:00−25ene38955 0.0 1018230
03:00−25e389540 0.0 1018252
06:00−25e4897100 0.1 1018243
09:00−24e4897100 0.3 1017237
12:00−23e4897100 0.1 1017238
15:00−21e4997100 0.1 1015253
18:00−21e51098100 0.0 1013287
21:00−19e51196100 0.1 1012334
30 january, sat
sat3000:00−18e51095100 0.2 1010342
03:00−16e51094100 0.6 1007373
06:00−17e51094100 0.0 1005392
09:00−16e41095100 0.6 1003418
12:00−13e51092100 0.1 1002486
15:00−12e41093100 0.2 1000445
18:00−12ese41094100 0.1 999374
21:00−13ese4994100 0.2 998391
31 january, sun
sun3100:00−14ese4895100 0.3 998362
03:00−13ese4994100 0.8 997373
06:00−13ese4894100 0.4 997338
09:00−13ese499499 0.7 997290
12:00−11ese379497 0.1 998334
15:00−9ese389498 0.2 998341
18:00−12ese3896100 0.1 999238
21:00−15ese3798100 0.1 999155